EW4049 Weather Reports


time (UTC)temp
C
wind
direction
speed
KPH
gust
KPH
rain 1hr
cm
rain 24hr
cm
rain mn
cm
humidity
%
barometer
mb
20210801204607 16 56 1.6 12.9 0.00 0.74 0.00 61 1038.3
20210801204056 16 30 4.8 12.9 0.00 0.74 0.00 63 1038.4
20210801203544 16 49 1.6 12.9 0.00 0.74 0.00 63 1038.5
20210801203041 16 44 6.4 12.9 0.00 0.74 0.00 61 1038.5
20210801202536 16 56 6.4 14.5 0.00 0.74 0.00 61 1038.6
20210801201604 16 162 3.2 12.9 0.00 0.74 0.00 64 1038.7
20210801201051 16 62 4.8 12.9 0.00 0.74 0.00 64 1038.7
20210801200529 16 63 6.4 12.9 0.00 0.74 0.00 64 1038.8
20210801200108 16 69 4.8 12.9 0.00 0.79 0.00 65 1038.8
20210801195553 16 41 6.4 14.5 0.00 0.79 0.00 65 1038.8
20210801195038 16 63 9.7 14.5 0.00 0.79 0.00 64 1038.8
20210801194532 16 92 1.6 17.7 0.00 0.79 0.00 64 1038.8
20210801194026 16 158 9.7 27.4 0.00 0.79 0.00 64 1039.0
20210801193513 16 136 16.1 27.4 0.00 0.79 0.00 61 1039.0
20210801193108 17 60 3.2 24.1 0.00 0.79 0.00 62 1039.0
20210801192555 17 38 12.9 24.1 0.00 0.79 0.00 62 1039.1
20210801192034 16 117 11.3 20.9 0.00 0.79 0.00 62 1039.0
20210801191600 17 53 12.9 20.9 0.00 0.79 0.00 60 1039.1
20210801191052 17 77 3.2 9.7 0.00 0.79 0.00 62 1039.3
20210801190540 16 102 3.2 11.3 0.00 0.79 0.00 62 1039.3
20210801190024 16 52 4.8 12.9 0.00 0.79 0.00 65 1039.4
20210801185600 16 75 6.4 19.3 0.00 0.79 0.00 61 1039.5
20210801185053 16 51 8.0 19.3 0.00 0.79 0.00 64 1039.6
20210801184537 16 79 8.0 14.5 0.00 0.79 0.00 65 1039.6
20210801184014 15 70 4.8 16.1 0.00 0.79 0.00 68 1039.7
20210801183543 15 58 9.7 16.1 0.00 0.79 0.00 69 1039.7
20210801183036 15 65 9.7 19.3 0.00 0.79 0.00 70 1039.8
20210801182525 16 69 8.0 19.3 0.00 0.79 0.00 67 1039.8
20210801182019 16 37 8.0 16.1 0.00 0.79 0.00 67 1039.8
20210801181605 16 56 8.0 17.7 0.00 0.79 0.00 65 1039.9
20210801181057 16 70 9.7 17.7 0.00 0.79 0.00 63 1040.0
20210801180548 16 89 0.0 16.1 0.00 0.79 0.00 64 1040.0
20210801180028 16 68 1.6 19.3 0.00 0.79 0.00 63 1040.1
20210801175544 16 70 6.4 19.3 0.00 0.79 0.00 61 1040.1
20210801175040 15 46 6.4 19.3 0.00 0.79 0.00 61 1040.0
20210801174534 15 48 8.0 17.7 0.00 0.79 0.00 64 1040.0
20210801174101 15 57 3.2 17.7 0.00 0.79 0.00 64 1040.1
20210801173554 15 46 4.8 17.7 0.00 0.79 0.00 62 1040.2
20210801173039 15 51 9.7 14.5 0.00 0.79 0.00 60 1040.2
20210801172533 15 72 8.0 12.9 0.00 0.79 0.00 62 1040.2
20210801172121 15 81 3.2 12.9 0.00 0.79 0.00 57 1040.2
20210801171531 15 52 4.8 12.9 0.00 0.79 0.00 59 1040.2
20210801170526 15 51 4.8 22.5 0.00 0.79 0.00 57 1040.2
20210801170103 15 70 6.4 22.5 0.00 0.79 0.00 60 1040.2
20210801165626 15 93 11.3 19.3 0.00 0.79 0.00 58 1040.2
20210801165045 15 60 9.7 22.5 0.00 0.79 0.00 58 1040.2
20210801164609 15 57 11.3 22.5 0.00 0.79 0.00 60 1040.2
20210801164059 15 21 6.4 17.7 0.00 0.79 0.00 58 1040.2
20210801163546 15 56 4.8 17.7 0.00 0.79 0.00 64 1040.1
20210801163041 15 89 11.3 17.7 0.00 0.79 0.00 58 1040.1
20210801162529 15 86 6.4 12.9 0.00 0.79 0.00 62 1040.1
20210801162104 15 84 3.2 9.7 0.00 0.79 0.00 63 1040.1
20210801161552 15 72 4.8 11.3 0.00 0.79 0.00 63 1040.1
20210801161031 15 63 4.8 12.9 0.00 0.79 0.00 60 1040.1
20210801160518 15 86 6.4 12.9 0.00 0.79 0.00 59 1040.1
20210801155547 15 55 4.8 9.7 0.00 0.79 0.00 56 1040.1
20210801155042 14 50 3.2 6.4 0.00 0.79 0.00 59 1040.0
20210801154537 14 22 1.6 6.4 0.00 0.79 0.00 75 1040.0
20210801154025 14 37 1.6 6.4 0.00 0.79 0.00 84 1040.0
20210801153602 13 43 0.0 3.2 0.00 0.79 0.00 86 1039.9
20210801153034 13 49 1.6 6.4 0.00 0.79 0.00 85 1040.1
20210801152601 13 11 1.6 6.4 0.00 0.79 0.00 84 1040.0
20210801152052 13 15 0.0 6.4 0.00 0.79 0.00 86 1040.1
20210801151549 13 17 0.0 8.0 0.00 0.79 0.00 86 1040.1
20210801151035 13 23 0.0 8.0 0.00 0.79 0.00 90 1040.1
20210801150530 12 31 0.0 4.8 0.00 0.79 0.00 92 1040.1
20210801150109 12 21 1.6 4.8 0.00 0.79 0.00 92 1040.1
20210801145538 12 18 0.0 3.2 0.00 0.79 0.00 92 1040.1
20210801145107 12 16 0.0 3.2 0.00 0.79 0.00 92 1040.0
20210801144541 12 18 0.0 1.6 0.00 0.79 0.00 93 1040.0
20210801144037 11 15 0.0 1.6 0.00 0.79 0.00 93 1040.0
20210801143533 11 15 0.0 1.6 0.00 0.79 0.00 93 1040.0
20210801143012 11 22 0.0 1.6 0.00 0.79 0.00 93 1040.2
20210801142606 11 353 0.0 1.6 0.00 0.79 0.00 94 1040.2
20210801142054 11 258 0.0 0.0 0.00 0.79 0.00 94 1040.2
20210801141548 11 258 0.0 0.0 0.00 0.79 0.00 94 1040.2
20210801141021 10 258 0.0 0.0 0.00 0.79 0.00 94 1040.2
20210801140516 10 258 0.0 0.0 0.00 0.79 0.00 94 1040.2
20210801140055 10 258 0.0 0.0 0.00 0.79 0.00 94 1040.1
20210801135539 10 258 0.0 0.0 0.00 0.79 0.00 94 1040.2
20210801135033 10 258 0.0 0.0 0.00 0.79 0.00 94 1040.0
20210801134519 10 258 0.0 1.6 0.00 0.79 0.00 94 1040.0
20210801134015 10 242 0.0 0.0 0.00 0.79 0.00 94 1039.9
20210801133603 10 242 0.0 0.0 0.00 0.79 0.00 94 1039.9
20210801133059 10 241 0.0 0.0 0.00 0.79 0.00 94 1039.8
20210801132530 10 241 0.0 3.2 0.00 0.79 0.00 94 1039.8
20210801132106 10 241 0.0 3.2 0.00 0.79 0.00 94 1039.8
20210801131554 10 241 0.0 0.0 0.00 0.79 0.00 94 1039.8
20210801131050 10 241 0.0 1.6 0.00 0.79 0.00 94 1039.8
20210801130544 10 241 0.0 1.6 0.00 0.79 0.00 94 1039.6
20210801130023 10 229 0.0 0.0 0.00 0.79 0.00 94 1039.6
20210801125607 10 229 0.0 1.6 0.00 0.79 0.00 94 1039.6
20210801125055 10 229 0.0 1.6 0.00 0.79 0.00 94 1039.5
20210801124722 10 219 0.0 1.6 0.00 0.79 0.00 95 1039.5
20210801124043 10 274 0.0 0.0 0.00 0.79 0.00 95 1039.5
20210801123530 10 274 0.0 0.0 0.00 0.79 0.00 95 1039.5
20210801123025 10 274 0.0 0.0 0.00 0.79 0.00 94 1039.4
20210801122551 10 274 0.0 0.0 0.00 0.79 0.00 95 1039.4
20210801122028 10 274 0.0 0.0 0.00 0.79 0.00 95 1039.4
20210801121553 10 274 0.0 0.0 0.00 0.79 0.00 94 1039.4
20210801121041 10 274 0.0 0.0 0.00 0.79 0.00 94 1039.4
20210801120525 10 274 0.0 1.6 0.00 0.79 0.00 94 1039.4
20210801115556 10 274 0.0 1.6 0.00 0.79 0.00 95 1039.3
20210801115049 10 285 0.0 1.6 0.00 0.79 0.00 95 1039.3
20210801114538 10 285 0.0 1.6 0.00 0.79 0.00 95 1039.3
20210801114017 10 286 0.0 0.0 0.00 0.79 0.00 95 1039.2
20210801113545 10 286 0.0 0.0 0.00 0.79 0.00 95 1039.2
20210801113033 10 286 0.0 0.0 0.00 0.79 0.00 95 1039.2
20210801112606 10 286 0.0 0.0 0.00 0.79 0.00 95 1039.2
20210801112055 10 286 0.0 0.0 0.00 0.79 0.00 95 1039.2
20210801111549 10 286 0.0 0.0 0.00 0.79 0.00 95 1039.1
20210801111042 10 286 0.0 0.0 0.00 0.79 0.00 95 1039.1
20210801110528 10 315 0.0 0.0 0.00 0.79 0.00 95 1039.1
20210801110049 10 295 0.0 0.0 0.00 0.79 0.00 95 1039.1
20210801105518 10 295 0.0 0.0 0.00 0.79 0.00 95 1039.2
20210801105044 10 295 0.0 0.0 0.00 0.79 0.00 95 1039.2
20210801104527 10 295 0.0 1.6 0.00 0.79 0.00 95 1039.1
20210801104102 10 288 0.0 0.0 0.00 0.79 0.00 95 1039.0
20210801103546 10 288 0.0 0.0 0.00 0.79 0.00 95 1038.8
20210801103041 10 288 0.0 0.0 0.00 0.79 0.00 95 1038.8
20210801102537 10 288 0.0 0.0 0.00 0.79 0.00 95 1038.8
20210801102103 10 288 0.0 0.0 0.00 0.79 0.00 95 1038.8
20210801101549 10 288 0.0 1.6 0.00 0.79 0.00 95 1038.8
20210801101027 10 288 0.0 1.6 0.00 0.79 0.00 95 1038.8
20210801100554 10 263 0.0 0.0 0.00 0.79 0.00 95 1038.8
20210801100034 10 263 0.0 1.6 0.00 0.79 0.00 95 1038.8
20210801095513 10 264 0.0 0.0 0.00 0.79 0.00 95 1038.8
20210801095109 10 265 0.0 0.0 0.00 0.79 0.00 95 1038.8
20210801094555 10 265 0.0 0.0 0.00 0.79 0.00 95 1038.8
20210801094050 10 261 0.0 0.0 0.00 0.79 0.00 95 1038.8
20210801093518 10 250 0.0 0.0 0.00 0.79 0.00 95 1038.8
20210801093107 10 250 0.0 0.0 0.00 0.79 0.00 95 1038.8
20210801092535 10 250 0.0 0.0 0.00 0.79 0.00 95 1038.8
20210801092029 10 247 0.0 1.6 0.00 0.79 0.00 95 1038.8
20210801091514 10 249 0.0 1.6 0.00 0.79 0.00 95 1038.8
20210801091109 10 281 0.0 0.0 0.00 0.79 0.00 95 1038.8
20210801090555 10 278 0.0 0.0 0.00 0.79 0.00 95 1038.6
20210801090040 10 278 0.0 0.0 0.00 0.79 0.00 95 1038.6
20210801085515 10 278 0.0 0.0 0.00 0.79 0.00 95 1038.7
20210801085105 10 278 0.0 0.0 0.00 0.79 0.00 95 1038.7
20210801084559 10 278 0.0 0.0 0.00 0.79 0.00 95 1038.8
20210801084030 10 278 0.0 0.0 0.00 0.79 0.00 95 1038.6
20210801083558 10 303 0.0 0.0 0.00 0.79 0.00 95 1038.7
20210801083054 10 304 0.0 0.0 0.00 0.79 0.00 95 1038.8
20210801082540 10 307 0.0 0.0 0.00 0.79 0.00 95 1038.8
20210801082034 10 307 0.0 0.0 0.00 0.79 0.00 95 1038.8
20210801081601 10 313 0.0 0.0 0.00 0.79 0.00 95 1038.9
20210801081056 10 313 0.0 0.0 0.00 0.79 0.00 95 1039.1
20210801080526 10 313 0.0 0.0 0.00 0.79 0.00 95 1039.2
20210801080026 10 314 0.0 0.0 0.00 0.81 0.00 95 1039.2
20210801075515 10 314 0.0 0.0 0.00 0.81 0.00 95 1039.2
20210801075024 10 314 0.0 0.0 0.00 0.81 0.00 95 1039.2
20210801074524 10 314 0.0 1.6 0.00 0.81 0.00 95 1039.2
20210801074033 10 314 0.0 1.6 0.00 0.81 0.00 95 1039.3
20210801073529 11 349 0.0 0.0 0.00 0.81 0.00 95 1039.3
20210801073033 11 349 0.0 0.0 0.00 0.81 0.00 95 1039.4
20210801072519 11 349 0.0 0.0 0.00 0.81 0.00 95 1039.4
20210801072026 11 349 0.0 0.0 0.00 0.81 0.00 95 1039.5
20210801071526 11 349 0.0 0.0 0.00 0.81 0.00 95 1039.6
20210801071027 11 349 0.0 0.0 0.00 0.81 0.00 95 1039.7
20210801070535 11 349 0.0 0.0 0.00 0.81 0.00 95 1039.8
20210801070028 11 349 0.0 0.0 0.00 0.81 0.00 95 1039.9
20210801065518 11 349 0.0 1.6 0.00 0.81 0.00 94 1039.9
20210801065026 11 349 0.0 1.6 0.00 0.81 0.00 94 1039.9
20210801064527 11 349 0.0 0.0 0.00 0.81 0.00 94 1039.9
20210801064033 11 21 0.0 0.0 0.00 0.81 0.00 94 1039.9
20210801063525 11 21 0.0 0.0 0.00 0.81 0.00 94 1040.0
20210801063032 11 21 0.0 0.0 0.00 0.81 0.00 94 1040.0
20210801062513 11 21 0.0 1.6 0.00 0.81 0.00 94 1040.0
20210801062033 11 25 0.0 3.2 0.00 0.81 0.00 94 1040.0
20210801061538 11 253 0.0 3.2 0.00 0.81 0.00 94 1040.1
20210801061019 11 272 0.0 1.6 0.00 0.81 0.00 94 1040.1
20210801060547 11 23 0.0 1.6 0.00 0.81 0.00 94 1040.1
20210801060027 11 319 0.0 1.6 0.00 0.91 0.81 94 1040.0
20210801055611 11 250 0.0 0.0 0.00 0.91 0.81 94 1040.0
20210801055057 11 250 0.0 0.0 0.00 0.91 0.81 94 1039.9
20210801054522 11 250 0.0 0.0 0.00 0.91 0.81 94 1039.9
20210801054015 11 251 0.0 0.0 0.00 0.91 0.81 93 1039.9
20210801053608 11 251 0.0 0.0 0.00 0.91 0.81 93 1039.9
20210801053055 11 251 0.0 0.0 0.00 0.91 0.81 93 1039.9
20210801052547 11 251 0.0 1.6 0.00 0.91 0.81 93 1039.9
20210801052016 11 251 0.0 1.6 0.00 0.91 0.81 93 1039.9
20210801051541 11 251 0.0 1.6 0.00 0.91 0.81 93 1039.9
20210801051036 11 255 0.0 1.6 0.00 0.91 0.81 93 1039.9
20210801050603 11 255 0.0 1.6 0.00 0.91 0.81 93 1039.9
20210801050050 11 255 0.0 1.6 0.00 1.12 0.81 92 1039.9
20210801045526 11 255 0.0 1.6 0.00 1.12 0.81 92 1039.9
20210801045023 11 347 0.0 1.6 0.00 1.12 0.81 92 1039.9
20210801044551 11 252 0.0 1.6 0.00 1.12 0.81 92 1039.9
20210801044043 11 248 0.0 3.2 0.00 1.12 0.81 93 1039.9
20210801043516 11 251 0.0 0.0 0.00 1.12 0.81 93 1039.9
20210801043042 11 252 0.0 1.6 0.00 1.12 0.81 92 1039.9
20210801042537 11 250 0.0 1.6 0.00 1.12 0.81 92 1039.9
20210801042103 11 243 0.0 1.6 0.00 1.12 0.81 91 1039.8
20210801041558 11 242 0.0 4.8 0.00 1.12 0.81 91 1039.7
20210801041049 11 242 0.0 4.8 0.00 1.12 0.81 90 1039.7
20210801040537 11 245 0.0 3.2 0.00 1.12 0.81 91 1039.7
20210801040025 11 245 0.0 3.2 0.00 2.08 0.81 92 1039.7
20210801035559 11 241 1.6 3.2 0.00 2.08 0.81 92 1039.8
20210801035037 11 255 0.0 0.0 0.00 2.08 0.81 92 1039.8
20210801034603 11 255 0.0 1.6 0.00 2.08 0.81 92 1039.7
20210801034045 11 255 0.0 1.6 0.00 2.08 0.81 92 1039.7
20210801033540 11 255 0.0 1.6 0.00 2.08 0.81 92 1039.7
20210801033036 11 255 0.0 0.0 0.00 2.08 0.81 92 1039.6
20210801032523 11 256 0.0 1.6 0.00 2.08 0.81 92 1039.6
20210801032016 11 236 0.0 1.6 0.00 2.08 0.81 92 1039.5
20210801031605 11 236 0.0 3.2 0.00 2.08 0.81 93 1039.6
20210801031042 11 250 0.0 1.6 0.00 2.08 0.81 93 1039.5
20210801030603 11 252 0.0 0.0 0.03 2.08 0.81 93 1039.6
20210801030041 11 249 0.0 0.0 0.03 2.08 0.81 93 1039.5
20210801025605 11 243 0.0 0.0 0.03 2.08 0.81 93 1039.4
20210801025049 11 243 0.0 0.0 0.03 2.08 0.81 93 1039.3
20210801024543 11 240 0.0 0.0 0.03 2.08 0.81 93 1039.2
20210801024027 11 250 0.0 0.0 0.03 2.08 0.81 93 1039.3
20210801023557 11 231 0.0 1.6 0.05 2.08 0.81 93 1039.2
20210801023046 11 248 0.0 3.2 0.05 2.08 0.81 93 1039.2
20210801022518 11 260 0.0 3.2 0.08 2.08 0.81 93 1039.2
20210801022013 11 254 0.0 1.6 0.10 2.08 0.81 93 1039.1
20210801021541 12 267 0.0 1.6 0.13 2.08 0.81 94 1039.0
20210801021034 12 257 0.0 4.8 0.18 2.08 0.81 94 1039.0
20210801020527 12 252 0.0 1.6 0.20 2.06 0.79 94 1038.8
20210801015556 12 83 0.0 0.0 0.23 2.06 0.79 94 1038.8
20210801015043 12 83 0.0 0.0 0.25 2.06 0.79 94 1038.8
20210801014521 12 83 0.0 0.0 0.25 2.06 0.79 94 1038.8
20210801014049 12 83 0.0 0.0 0.25 2.06 0.79 94 1038.8
20210801013536 12 83 0.0 4.8 0.23 2.03 0.76 94 1038.8
20210801013030 12 83 0.0 8.0 0.23 2.03 0.76 93 1038.8
20210801012556 12 93 0.0 4.8 0.20 2.01 0.74 93 1038.8
20210801012052 12 69 1.6 8.0 0.18 1.98 0.71 93 1038.8
20210801011547 12 65 3.2 8.0 0.18 1.96 0.69 93 1038.8
20210801011019 12 46 0.0 1.6 0.13 1.91 0.64 93 1038.8
20210801010559 12 46 0.0 1.6 0.08 1.85 0.58 93 1038.8
20210801010049 12 20 0.0 1.6 0.08 1.83 0.56 93 1038.8
20210801005533 12 8 0.0 1.6 0.10 1.83 0.56 93 1038.8
20210801005020 13 8 0.0 1.6 0.10 1.80 0.53 93 1038.7
20210801004515 13 8 0.0 1.6 0.13 1.80 0.53 93 1038.6
20210801004103 13 8 0.0 1.6 0.15 1.80 0.53 93 1038.5
20210801003559 13 9 0.0 0.0 0.18 1.80 0.53 93 1038.6
20210801003053 13 18 0.0 0.0 0.20 1.80 0.53 93 1038.6
20210801002524 13 284 0.0 0.0 0.23 1.80 0.53 93 1038.6
20210801002051 13 284 0.0 1.6 0.25 1.80 0.53 93 1038.6
20210801001544 13 284 0.0 1.6 0.25 1.78 0.51 93 1038.6
20210801001030 13 284 0.0 0.0 0.25 1.78 0.51 93 1038.7
20210801000525 13 262 0.0 0.0 0.25 1.75 0.48 92 1038.7
20210731235551 13 262 0.0 0.0 0.23 1.73 0.46 92 1038.8
20210731235046 13 262 0.0 0.0 0.20 1.70 0.43 92 1038.8
20210731234518 13 262 0.0 0.0 0.18 1.68 0.41 92 1038.7
20210731234045 12 262 0.0 0.0 0.15 1.65 0.38 92 1038.7
20210731233540 13 262 0.0 1.6 0.15 1.63 0.36 91 1038.7
20210731233025 13 262 0.0 1.6 0.13 1.60 0.33 92 1038.7
20210731232601 13 14 0.0 0.0 0.10 1.57 0.30 92 1038.8
20210731232048 13 15 0.0 1.6 0.08 1.55 0.28 93 1038.7
20210731231543 13 15 0.0 1.6 0.05 1.52 0.25 92 1038.7
20210731231038 13 15 0.0 1.6 0.05 1.52 0.25 92 1038.7
20210731230606 13 15 0.0 1.6 0.03 1.50 0.23 92 1038.7
20210731230050 13 11 0.0 1.6 0.03 1.50 0.23 91 1038.7
20210731225534 13 11 0.0 1.6 0.03 1.50 0.23 90 1038.6
20210731225028 13 255 0.0 1.6 0.03 1.50 0.23 90 1038.5
20210731224516 13 232 0.0 1.6 0.03 1.50 0.23 89 1038.5
20210731224106 13 232 0.0 0.0 0.03 1.50 0.23 90 1038.6
20210731223551 13 232 0.0 1.6 0.00 1.47 0.20 90 1038.7
20210731223046 13 232 0.0 1.6 0.03 1.47 0.20 88 1038.7
20210731222541 13 228 0.0 1.6 0.03 1.47 0.20 89 1038.7
20210731222012 13 228 0.0 1.6 0.03 1.47 0.20 88 1038.7
20210731221539 13 75 0.0 0.0 0.03 1.47 0.20 88 1038.8
20210731221031 13 75 0.0 0.0 0.03 1.47 0.20 85 1038.6
20210731220516 13 75 0.0 1.6 0.03 1.47 0.20 87 1038.7
20210731220101 14 75 0.0 4.8 0.03 1.47 0.20 88 1038.7
20210731215547 14 75 1.6 3.2 0.05 1.47 0.20 89 1038.6
20210731215034 14 191 0.0 3.2 0.08 1.47 0.20 89 1038.6
20210731214601 14 82 0.0 3.2 0.08 1.47 0.20 90 1038.5
20210731214055 13 65 0.0 3.2 0.08 1.47 0.20 89 1038.5
20210731213527 13 113 0.0 4.8 0.08 1.47 0.20 89 1038.5
20210731213018 13 58 0.0 3.2 0.08 1.45 0.18 90 1038.6
20210731212610 13 75 0.0 0.0 0.08 1.45 0.18 90 1038.6
20210731212059 13 75 0.0 0.0 0.10 1.45 0.18 91 1038.6
20210731211552 13 75 0.0 1.6 0.10 1.45 0.18 90 1038.7
20210731211039 13 75 0.0 1.6 0.10 1.45 0.18 90 1038.8
20210731210534 13 75 0.0 3.2 0.10 1.45 0.18 90 1038.7
20210731210025 13 76 0.0 4.8 0.08 1.42 0.15 91 1038.8
20210731205541 13 70 0.0 4.8 0.08 1.42 0.15 90 1038.8
20210731205029 13 94 1.6 4.8 0.05 1.40 0.13 90 1038.8